Time,TemperatureF,DewpointF,PressureIn,WindDirection,WindDirectionDegrees,WindSpeedMPH,WindSpeedGustMPH,Humidity,HourlyPrecipIn,Conditions,Clouds,dailyrainin,SoftwareType,DateUTC
2013-11-18 00:12:00,45.0,-99.9,-100.00,WSW,250,13.0,19.0,-999,0.00,,,0.32,,2013-11-18 06:12:00,
2013-11-18 00:22:00,45.0,-99.9,-100.00,WSW,250,13.0,19.0,-999,0.00,,,0.32,,2013-11-18 06:22:00,
2013-11-18 00:42:00,44.0,-99.9,-100.00,WSW,253,6.0,15.0,-999,0.00,,,0.32,,2013-11-18 06:42:00,
2013-11-18 00:52:00,44.0,-99.9,-100.00,WSW,253,6.0,15.0,-999,0.00,,,0.32,,2013-11-18 06:52:00,
2013-11-18 01:12:00,44.0,-99.9,-100.00,WSW,243,6.0,9.0,-999,0.00,,,0.28,,2013-11-18 07:12:00,
2013-11-18 01:22:00,44.0,-99.9,-100.00,WSW,243,6.0,9.0,-999,0.00,,,0.28,,2013-11-18 07:22:00,
2013-11-18 01:42:00,43.0,-99.9,-100.00,WSW,245,9.0,15.0,-999,0.00,,,0.27,,2013-11-18 07:42:00,
2013-11-18 02:11:00,43.0,-99.9,-100.00,WSW,243,11.0,15.0,-999,0.00,,,0.27,,2013-11-18 08:11:00,
2013-11-18 02:22:00,43.0,-99.9,-100.00,WSW,243,11.0,15.0,-999,0.00,,,0.27,,2013-11-18 08:22:00,
2013-11-18 02:42:00,42.0,-99.9,-100.00,WSW,247,8.0,12.0,-999,0.00,,,0.27,,2013-11-18 08:42:00,
2013-11-18 02:52:00,42.0,-99.9,-100.00,WSW,247,8.0,12.0,-999,0.00,,,0.27,,2013-11-18 08:52:00,
2013-11-18 03:13:00,42.0,-99.9,-100.00,WSW,255,6.0,10.0,-999,0.00,,,0.26,,2013-11-18 09:13:00,
2013-11-18 03:22:00,42.0,-99.9,-100.00,WSW,255,6.0,10.0,-999,0.00,,,0.26,,2013-11-18 09:22:00,
2013-11-18 03:30:00,41.0,-99.9,-100.00,WSW,241,9.0,13.0,-999,0.00,,,0.26,,2013-11-18 09:30:00,
2013-11-18 03:43:00,41.0,-99.9,-100.00,WSW,250,9.0,13.0,-999,0.00,,,0.26,,2013-11-18 09:43:00,
2013-11-18 03:53:00,41.0,-99.9,-100.00,WSW,250,9.0,13.0,-999,0.00,,,0.26,,2013-11-18 09:53:00,
2013-11-18 04:13:00,41.0,-99.9,-100.00,WSW,241,9.0,13.0,-999,0.00,,,0.26,,2013-11-18 10:13:00,
2013-11-18 04:23:00,41.0,-99.9,-100.00,WSW,241,9.0,13.0,-999,0.00,,,0.26,,2013-11-18 10:23:00,
2013-11-18 05:12:00,40.0,-99.9,-100.00,WSW,239,6.0,12.0,-999,0.00,,,0.26,,2013-11-18 11:12:00,
2013-11-18 05:22:00,40.0,-99.9,-100.00,WSW,239,6.0,12.0,-999,0.00,,,0.26,,2013-11-18 11:22:00,
2013-11-18 05:42:00,40.0,-99.9,-100.00,WSW,244,9.0,12.0,-999,0.00,,,0.26,,2013-11-18 11:42:00,
2013-11-18 06:12:00,40.0,-99.9,-100.00,WSW,250,8.0,15.0,-999,0.00,,,0.26,,2013-11-18 12:12:00,
2013-11-18 06:22:00,40.0,-99.9,-100.00,WSW,250,8.0,15.0,-999,0.00,,,0.26,,2013-11-18 12:22:00,
2013-11-18 06:42:00,40.0,-99.9,-100.00,WSW,252,8.0,12.0,-999,0.00,,,0.26,,2013-11-18 12:42:00,
2013-11-18 06:52:00,40.0,-99.9,-100.00,WSW,252,8.0,12.0,-999,0.00,,,0.26,,2013-11-18 12:52:00,
2013-11-18 07:11:00,39.0,-99.9,-100.00,WSW,251,7.0,10.0,-999,0.00,,,0.26,,2013-11-18 13:11:00,
2013-11-18 07:22:00,39.0,-99.9,-100.00,WSW,251,7.0,10.0,-999,0.00,,,0.26,,2013-11-18 13:22:00,
2013-11-18 07:42:00,39.0,-99.9,-100.00,West,263,9.0,12.0,-999,0.00,,,0.26,,2013-11-18 13:42:00,
2013-11-18 07:52:00,39.0,-99.9,-100.00,West,263,9.0,12.0,-999,0.00,,,0.26,,2013-11-18 13:52:00,
2013-11-18 08:11:00,39.0,-99.9,-100.00,WNW,294,10.0,16.0,-999,0.00,,,0.26,,2013-11-18 14:11:00,
2013-11-18 08:22:00,39.0,-99.9,-100.00,WNW,294,10.0,16.0,-999,0.00,,,0.26,,2013-11-18 14:22:00,
2013-11-18 08:42:00,38.0,-99.9,-100.00,West,278,10.0,14.0,-999,0.00,,,0.26,,2013-11-18 14:42:00,
2013-11-18 08:52:00,38.0,-99.9,-100.00,West,278,10.0,14.0,-999,0.00,,,0.26,,2013-11-18 14:52:00,
2013-11-18 09:11:00,39.0,-99.9,-100.00,West,266,8.0,14.0,-999,0.00,,,0.26,,2013-11-18 15:11:00,
2013-11-18 09:22:00,39.0,-99.9,-100.00,West,266,8.0,14.0,-999,0.00,,,0.26,,2013-11-18 15:22:00,
2013-11-18 09:43:00,39.0,-99.9,-100.00,WNW,282,7.0,18.0,-999,0.00,,,0.26,,2013-11-18 15:43:00,
2013-11-18 10:13:00,40.0,-99.9,-100.00,West,274,5.0,13.0,-999,0.00,,,0.26,,2013-11-18 16:13:00,
2013-11-18 10:23:00,40.0,-99.9,-100.00,West,274,5.0,13.0,-999,0.00,,,0.26,,2013-11-18 16:23:00,
2013-11-18 10:43:00,40.0,-99.9,-100.00,West,264,6.0,13.0,-999,0.00,,,0.26,,2013-11-18 16:43:00,
2013-11-18 10:53:00,40.0,-99.9,-100.00,West,264,6.0,13.0,-999,0.00,,,0.26,,2013-11-18 16:53:00,
2013-11-18 11:12:00,40.0,-99.9,-100.00,West,278,9.0,18.0,-999,0.00,,,0.26,,2013-11-18 17:12:00,
2013-11-18 11:22:00,40.0,-99.9,-100.00,West,278,9.0,18.0,-999,0.00,,,0.26,,2013-11-18 17:22:00,
2013-11-18 11:43:00,41.0,-99.9,-100.00,WSW,245,5.0,13.0,-999,0.00,,,0.01,,2013-11-18 17:43:00,
2013-11-18 11:52:00,41.0,-99.9,-100.00,WSW,245,5.0,13.0,-999,0.00,,,0.01,,2013-11-18 17:52:00,
2013-11-18 12:12:00,42.0,-99.9,-100.00,WNW,291,7.0,18.0,-999,0.00,,,0.00,,2013-11-18 18:12:00,
2013-11-18 12:23:00,42.0,-99.9,-100.00,WNW,291,7.0,18.0,-999,0.00,,,0.00,,2013-11-18 18:23:00,
2013-11-18 12:42:00,42.0,-99.9,-100.00,WSW,252,12.0,19.0,-999,0.00,,,0.00,,2013-11-18 18:42:00,
2013-11-18 12:52:00,42.0,-99.9,-100.00,WSW,252,12.0,19.0,-999,0.00,,,0.00,,2013-11-18 18:52:00,
2013-11-18 13:11:00,42.0,-99.9,-100.00,West,260,12.0,24.0,-999,0.00,,,0.00,,2013-11-18 19:11:00,
2013-11-18 13:22:00,42.0,-99.9,-100.00,West,260,12.0,24.0,-999,0.00,,,0.00,,2013-11-18 19:22:00,
2013-11-18 13:42:00,43.0,-99.9,-100.00,WSW,244,3.0,12.0,-999,0.00,,,0.00,,2013-11-18 19:42:00,
2013-11-18 13:52:00,43.0,-99.9,-100.00,WSW,244,3.0,12.0,-999,0.00,,,0.00,,2013-11-18 19:52:00,
2013-11-18 14:11:00,43.0,-99.9,-100.00,West,269,10.0,21.0,-999,0.00,,,0.00,,2013-11-18 20:11:00,
2013-11-18 14:22:00,43.0,-99.9,-100.00,West,269,10.0,21.0,-999,0.00,,,0.00,,2013-11-18 20:22:00,
2013-11-18 14:42:00,44.0,-99.9,-100.00,WNW,293,9.0,16.0,-999,0.00,,,0.00,,2013-11-18 20:42:00,
2013-11-18 14:52:00,44.0,-99.9,-100.00,WNW,293,9.0,16.0,-999,0.00,,,0.00,,2013-11-18 20:52:00,
2013-11-18 15:12:00,44.0,-99.9,-100.00,West,263,7.0,13.0,-999,0.00,,,0.00,,2013-11-18 21:12:00,
2013-11-18 15:22:00,44.0,-99.9,-100.00,West,263,7.0,13.0,-999,0.00,,,0.00,,2013-11-18 21:22:00,
2013-11-18 15:43:00,45.0,-99.9,-100.00,West,263,11.0,19.0,-999,0.00,,,0.00,,2013-11-18 21:43:00,
2013-11-18 15:54:00,45.0,-99.9,-100.00,West,263,11.0,19.0,-999,0.00,,,0.00,,2013-11-18 21:54:00,
2013-11-18 16:13:00,44.0,-99.9,-100.00,WNW,282,11.0,19.0,-999,0.00,,,0.00,,2013-11-18 22:13:00,
2013-11-18 16:23:00,44.0,-99.9,-100.00,WNW,282,11.0,19.0,-999,0.00,,,0.00,,2013-11-18 22:23:00,
2013-11-18 16:43:00,44.0,-99.9,-100.00,WSW,256,8.0,12.0,-999,0.00,,,0.00,,2013-11-18 22:43:00,
2013-11-18 16:53:00,44.0,-99.9,-100.00,WSW,256,8.0,12.0,-999,0.00,,,0.00,,2013-11-18 22:53:00,
2013-11-18 17:12:00,43.0,-99.9,-100.00,WNW,303,7.0,12.0,-999,0.00,,,0.00,,2013-11-18 23:12:00,
2013-11-18 17:22:00,43.0,-99.9,-100.00,WNW,303,7.0,12.0,-999,0.00,,,0.00,,2013-11-18 23:22:00,
2013-11-18 17:42:00,42.0,-99.9,-100.00,WNW,285,5.0,8.0,-999,0.00,,,0.00,,2013-11-18 23:42:00,
2013-11-18 17:52:00,42.0,-99.9,-100.00,WNW,285,5.0,8.0,-999,0.00,,,0.00,,2013-11-18 23:52:00,
2013-11-18 18:11:00,41.0,-99.9,-100.00,WNW,292,6.0,9.0,-999,0.00,,,0.00,,2013-11-19 00:11:00,
2013-11-18 18:22:00,41.0,-99.9,-100.00,WNW,292,6.0,9.0,-999,0.00,,,0.00,,2013-11-19 00:22:00,
2013-11-18 18:42:00,40.0,-99.9,-100.00,West,279,3.0,4.0,-999,0.00,,,0.00,,2013-11-19 00:42:00,
2013-11-18 18:52:00,40.0,-99.9,-100.00,West,279,3.0,4.0,-999,0.00,,,0.00,,2013-11-19 00:52:00,
2013-11-18 19:11:00,40.0,-99.9,-100.00,West,276,3.0,5.0,-999,0.00,,,0.00,,2013-11-19 01:11:00,
2013-11-18 19:22:00,40.0,-99.9,-100.00,West,276,3.0,5.0,-999,0.00,,,0.00,,2013-11-19 01:22:00,
2013-11-18 19:42:00,39.0,-99.9,-100.00,WSW,255,6.0,9.0,-999,0.00,,,0.00,,2013-11-19 01:42:00,
2013-11-18 19:52:00,39.0,-99.9,-100.00,WSW,255,6.0,9.0,-999,0.00,,,0.00,,2013-11-19 01:52:00,
2013-11-18 20:12:00,38.0,-99.9,-100.00,WSW,251,3.0,6.0,-999,0.00,,,0.00,,2013-11-19 02:12:00,
2013-11-18 20:22:00,38.0,-99.9,-100.00,WSW,251,3.0,6.0,-999,0.00,,,0.00,,2013-11-19 02:22:00,
2013-11-18 20:42:00,38.0,-99.9,-100.00,West,265,2.0,5.0,-999,0.00,,,0.00,,2013-11-19 02:42:00,
2013-11-18 20:52:00,38.0,-99.9,-100.00,West,265,2.0,5.0,-999,0.00,,,0.00,,2013-11-19 02:52:00,
2013-11-18 21:11:00,38.0,-99.9,-100.00,WNW,288,4.0,6.0,-999,0.00,,,0.00,,2013-11-19 03:11:00,
2013-11-18 21:22:00,38.0,-99.9,-100.00,WNW,288,4.0,6.0,-999,0.00,,,0.00,,2013-11-19 03:22:00,
2013-11-18 21:43:00,36.0,-99.9,-100.00,WNW,291,0.0,3.0,-999,0.00,,,0.00,,2013-11-19 03:43:00,
2013-11-18 21:54:00,36.0,-99.9,-100.00,WNW,291,0.0,3.0,-999,0.00,,,0.00,,2013-11-19 03:54:00,
2013-11-18 22:13:00,36.0,-99.9,-100.00,NW,316,2.0,3.0,-999,0.00,,,0.00,,2013-11-19 04:13:00,
2013-11-18 22:24:00,36.0,-99.9,-100.00,NW,316,2.0,3.0,-999,0.00,,,0.00,,2013-11-19 04:24:00,
2013-11-18 22:43:00,35.0,-99.9,-100.00,WNW,287,3.0,4.0,-999,0.00,,,0.00,,2013-11-19 04:43:00,
2013-11-18 22:53:00,35.0,-99.9,-100.00,WNW,287,3.0,4.0,-999,0.00,,,0.00,,2013-11-19 04:53:00,
2013-11-18 23:12:00,33.0,-99.9,-100.00,SSW,204,1.0,3.0,-999,0.00,,,0.00,,2013-11-19 05:12:00,
2013-11-18 23:23:00,33.0,-99.9,-100.00,SSW,204,1.0,3.0,-999,0.00,,,0.00,,2013-11-19 05:23:00,
2013-11-18 23:43:00,33.0,-99.9,-100.00,SSW,211,1.0,2.0,-999,0.00,,,0.00,,2013-11-19 05:43:00,
2013-11-18 23:53:00,33.0,-99.9,-100.00,SSW,211,1.0,2.0,-999,0.00,,,0.00,,2013-11-19 05:53:00,